Regional Weather Roundup
Issued by NWS

Home | Current Version | Previous Version | Text Only | Print | Product List | Glossary On
Versions: 1 2 3 4 5 6 7 8 9 10 11 12 13 14 15 16 17 18 19 20 21 22 23 24 25 26 27 28 29 30 31 32 33 34 35 36 37 38 39 40 41 42 43 44 45 46 47 48 49 50
000
ASUS43 KTOP 271559
RWRKS

WEATHER ROUNDUP FOR KANSAS
NATIONAL WEATHER SERVICE GOODLAND KS
1100 AM CDT MON APR 27 2015

NOTE:  "FAIR" INDICATES FEW OR NO CLOUDS BELOW 12,000 FEET WITH NO
SIGNIFICANT WEATHER AND/OR OBSTRUCTIONS TO VISIBILITY.

KSZ001>006-013>018-027>032-041>047-271700-
NORTHWEST KANSAS

CITY           SKY/WX    TMP DP  RH WIND       PRES   REMARKS
GOODLAND       MOSUNNY   50  34  54 NE17      30.21R
HAYS           PTSUNNY   55  34  44 NE21G26   30.15R
HILL CITY      PTSUNNY   54  37  52 NE17G24   30.19S
RUSSELL        MOSUNNY   55  35  47 E21G26    30.13S
$$

KSZ061>065-074>080-084>089-271700-
SOUTHWEST KANSAS

CITY           SKY/WX    TMP DP  RH WIND       PRES   REMARKS
DODGE CITY     CLOUDY    48  37  65 NE23G33   30.07R
ELKHART          N/A     41  35  79 N18         N/A
GARDEN CITY    CLOUDY    48  37  65 NE23G32   30.08R
GREAT BEND     PTSUNNY   52  36  54 NE20G25   30.11R
LIBERAL        CLOUDY    43  39  87 NE18G24   30.07R
$$

KSZ066>073-081>083-090>101-271700-
SOUTHEAST KANSAS

CITY           SKY/WX    TMP DP  RH WIND       PRES   REMARKS
CHANUTE        MOSUNNY   58  36  43 E18G30    30.06S
COFFEYVILLE    PTSUNNY   58  38  47 E18G25    30.03R
HUTCHINSON     CLOUDY    56  36  47 E22G32    30.07R
MEDICINE LODGE   N/A     50  41  71 NE18G28   30.01S
NEWTON         CLOUDY    54  36  50 E16G26    30.09R
PARSONS        PTSUNNY   59  37  44 E10G24    30.05S
WICHITA INTL   CLOUDY    56  35  45 E24G32    30.04R
WICHITA JABRA  CLOUDY    56  36  47 E22G31    30.05R
WINFIELD       CLOUDY    54  39  57 E14G30    30.01F
$$

KSZ007>012-019>026-033>040-048>060-102>105-271700-
NORTHEAST KANSAS

CITY           SKY/WX    TMP DP  RH WIND       PRES   REMARKS
CONCORDIA      CLOUDY    52  37  56 NE10      30.19R
EMPORIA        PTSUNNY   55  38  52 NE21G31   30.11S
LAWRENCE       PTSUNNY   58  38  47 E17       30.16F
MANHATTAN      CLOUDY    55  40  56 E9        30.16R
OLATHE IND     PTSUNNY   57  36  45 MISG      30.15F
OLATHE EXE     PTSUNNY   57  37  47 E13G20    30.13F
SALINA         PTSUNNY   57  38  48 E13G22    30.14S
TOPEKA BILLARD PTSUNNY   58  37  45 NE17      30.16F
TOPEKA FORBES  PTSUNNY   58  38  47 NE15G23   30.14F
$$


USA.gov is the U.S. government's official web portal to all federal, state and local government web resources and services.